Regional Weather Roundup
Issued by NWS

Home | Current Version | Previous Version | Text Only | Print | Product List | Glossary On
Versions: 1 2 3 4 5 6 7 8 9 10 11 12 13 14 15 16 17 18 19 20 21 22 23 24 25 26 27 28 29 30 31 32 33 34 35 36 37 38 39 40 41 42 43 44 45 46 47 48 49 50
000
ASUS43 KDMX 211007
RWRIA

WEATHER ROUNDUP FOR IOWA
NATIONAL WEATHER SERVICE DES MOINES IA
500 AM CDT MON JUL 21 2014

NOTE: "FAIR" INDICATES FEW OR NO CLOUDS BELOW 12,000 FEET WITH NO
SIGNIFICANT WEATHER AND/OR OBSTRUCTIONS TO VISIBILITY.

* - THESE STATIONS ARE NOT NWS STATIONS...THUS NOT UNDER NWS
QUALITY CONTROL.  THEY ALSO DO NOT REPORT WEATHER SUCH
AS PRECIPITATION OR FOG.

IAZ001>003-012>014-020>022-031>034-043>046-211100-
   NORTHWEST IOWA

CITY           SKY/WX    TMP DP  RH WIND       PRES   REMARKS
CARROLL *      CLEAR     72  68  88 S9        29.88S
CHEROKEE *     CLEAR     72  70  94 S6        29.85R
DENISON *      CLEAR     73  68  83 S10G17    29.85S
LE MARS *      CLEAR     73  70  88 S12       29.82S
ORANGE CITY *  CLEAR     73  68  83 S8        29.83S
SHELDON *      CLEAR     70  68  94 SE7       29.83S
SIOUX CITY     CLEAR     74  70  87 SE8       29.81S
SPENCER        CLEAR     70  67  90 SE7       29.86S
STORM LAKE *   CLEAR     68  68 100 S8        29.88R
$$

IAZ055>058-069>071-079>083-090>094-211100-
   SOUTHWEST IOWA

CITY           SKY/WX    TMP DP  RH WIND       PRES   REMARKS
ATLANTIC *     MOCLDY    72  68  88 S10       29.88F
AUDUBON *      CLEAR     73  70  88 S8        29.90S
CLARINDA *     CLEAR     72  68  88 S8        29.92S
COUNCIL BLFS *   N/A     72  70  94 S13       29.85S
CRESTON *      CLEAR     70  66  88 S12       29.94S
HARLAN  *      CLEAR     73  68  83 S10       29.91S
LAMONI         CLEAR     68  65  90 S8        29.95S
RED OAK *      CLEAR     73  68  83 S12       29.89S
SHENANDOAH *   PTCLDY    73  68  83 S9        29.89F
$$

IAZ047>049-059>061-072>074-084-211100-
   CENTRAL IOWA

CITY           SKY/WX    TMP DP  RH WIND       PRES   REMARKS
AMES           CLEAR     67  65  93 SE6       29.92S
ANKENY *       CLEAR     70  66  88 S5        29.93R
CHARITON *     PTCLDY    70  64  83 S9        29.95S
DES MOINES     CLEAR     71  65  81 S8        29.92S
GRINNELL*      CLEAR     66  64  94 SE7       29.97S
KNOXVILLE *    CLEAR     70  64  83 S8        29.94S
MARSHALLTOWN   CLOUDY    70  65  84 SE7       29.94S
PELLA *        CLEAR     68  64  88 SE6       29.96S
PERRY *          N/A     68  66  94 SE6       29.91S
$$

IAZ004>006-015-016-023>025-035-036-211100-
   NORTH CENTRAL IOWA

CITY           SKY/WX    TMP DP  RH WIND       PRES   REMARKS
ALGONA *       CLEAR     70  66  88 SE9       29.89S
CLARION *      CLEAR     70  66  88 S10       29.91S
ESTHERVILLE    CLEAR     68  66  93 S13       29.87S
FORT DODGE *   CLEAR     70  64  83 S7G17     29.90S
MASON CITY     MOCLDY    72  66  81 S10       29.94S
FOREST CITY *  CLEAR     68  68 100 SE6       29.92S
IOWA FALLS *   CLOUDY    70  64  83 SE6       29.94S
$$

IAZ007>011-017>019-026>030-037>042-050>054-066-211100-
   NORTHEAST IOWA

CITY           SKY/WX    TMP DP  RH WIND       PRES   REMARKS
CEDAR RAPIDS   CLEAR     67  59  75 S7        29.98R
CHARLES CITY * CLOUDY    70  66  88 S8        29.95S
DECORAH *      CLOUDY    70  64  83 S6G12     29.96S
DUBUQUE        CLEAR     64  62  93 S8        30.01S
MONTICELLO *   CLEAR     64  63  94 SE5       30.00R
OELWEIN *      MOCLDY    68  68 100 S10       29.98S
WATERLOO       MOCLDY    69  64  84 S9        29.94S
$$

IAZ064-065-067-068-078-211100-
   EAST CENTRAL IOWA

CITY           SKY/WX    TMP DP  RH WIND       PRES   REMARKS
DAVENPORT      CLEAR     66  61  84 S9        30.03R
IOWA CITY      CLEAR     65  63  93 SE3       30.01R
MT. PLEASANT * CLEAR     66  63  88 SE6       30.01R
MUSCATINE *    CLEAR     61  59  94 CALM      30.01S
QUAD CITIES    CLEAR     64  60  87 SE3       30.02R
$$

IAZ062-063-075>077-085>089-095>099-211100-
   SOUTHEAST IOWA

CITY           SKY/WX    TMP DP  RH WIND       PRES   REMARKS
BURLINGTON     CLEAR     65  62  90 S7        30.02R
FAIRFIELD *    CLEAR     66  63  88 SE9       30.00R
FORT MADISON * CLEAR     68  64  88 S6        30.03R
KEOKUK *       CLEAR     66  63  88 SE5       30.01S
OSKALOOSA *      N/A     66  64  94 S6        29.98R
OTTUMWA        CLEAR     68  64  87 S8        29.97S
WASHINGTON *   CLEAR     64  63  94 S7        30.00R
$$

ABBREVIATIONS USED IN REMARKS
   TC - TEMPERATURES IN CELSIUS
  WCI - WIND CHILL INDEX
   HX - HEAT INDEX
  VSB - VISIBILITY
$$



USA.gov is the U.S. government's official web portal to all federal, state and local government web resources and services.